#�ϑ�����,���ϕ���,���ϕ���,�ő啗��,�ő啗����������,�ő�u�ԕ���,�ő�u�ԕ�����������
#(�N����),(m/s)   ,(16����),(m/s)   ,(16����)        ,(m/s)       ,(16����)            
2018/3/6 0:01,2.7,2,2.7,1,9.2,3
2018/3/6 0:02,2.8,1,2.8,2,4.1,2
2018/3/6 0:03,2.9,1,2.9,2,6.3,4
2018/3/6 0:04,2.8,1,2.9,2,8.4,3
2018/3/6 0:05,2.9,1,2.9,1,5.5,16
2018/3/6 0:06,3,1,3,1,8.1,3
2018/3/6 0:07,3.2,1,3.2,1,7.5,16
2018/3/6 0:08,3.4,2,3.4,2,6.1,1
2018/3/6 0:09,3.5,2,3.5,2,5.1,3
2018/3/6 0:10,3.4,2,3.5,2,4.1,3
2018/3/6 0:11,3,2,3.3,2,2.1,10
2018/3/6 0:12,3.2,2,3.2,2,5.5,11
2018/3/6 0:13,3,1,3.2,2,4.1,10
2018/3/6 0:14,2.8,1,3,2,1.8,10
2018/3/6 0:15,2.5,1,2.7,2,1.4,7
2018/3/6 0:16,2.3,14,2.5,2,4.4,12
2018/3/6 0:17,2,13,2.3,2,2.9,12
2018/3/6 0:18,1.8,13,1.9,2,2.6,16
2018/3/6 0:19,1.6,12,1.8,2,2.5,5
2018/3/6 0:20,1.7,11,1.7,2,4.9,4
2018/3/6 0:21,2,14,2,2,6.3,2
2018/3/6 0:22,1.8,1,2,2,2.7,1
2018/3/6 0:23,1.8,2,1.8,1,5.5,3
2018/3/6 0:24,2,2,2,1,7,1
2018/3/6 0:25,2.3,2,2.3,2,7.5,2
2018/3/6 0:26,2.6,2,2.6,2,12.8,3
2018/3/6 0:27,3,2,3,2,9.1,2
2018/3/6 0:28,3.2,2,3.2,2,6.7,4
2018/3/6 0:29,3.5,2,3.5,2,6,2
2018/3/6 0:30,3.4,2,3.5,2,3.5,2
2018/3/6 0:31,3.3,2,3.4,2,6.5,16
2018/3/6 0:32,3.3,2,3.3,2,3.2,4
2018/3/6 0:33,3.2,2,3.3,2,2.5,7
2018/3/6 0:34,3.1,2,3.2,2,7,1
2018/3/6 0:35,3.2,2,3.2,2,5.8,3
2018/3/6 0:36,3,2,3.2,2,6.4,4
2018/3/6 0:37,2.6,2,3,2,5.7,3
2018/3/6 0:38,2.6,2,2.6,2,4.4,2
2018/3/6 0:39,2.5,2,2.5,2,7,3
2018/3/6 0:40,2.4,3,2.5,2,3.6,3
2018/3/6 0:41,2.4,3,2.4,2,3.5,2
2018/3/6 0:42,2.6,3,2.6,2,7.6,1
2018/3/6 0:43,3,2,3,2,8.5,1
2018/3/6 0:44,2.9,2,3,2,3.8,2
2018/3/6 0:45,2.9,3,2.9,2,6.3,3
2018/3/6 0:46,3,3,3,2,8.7,4
2018/3/6 0:47,3.3,3,3.3,3,9.1,3
2018/3/6 0:48,3.3,3,3.4,3,7.8,3
2018/3/6 0:49,3.2,2,3.3,3,3,1
2018/3/6 0:50,3.2,3,3.3,3,3.1,6
2018/3/6 0:51,3.3,3,3.3,3,4.3,6
2018/3/6 0:52,3.2,3,3.3,3,5.1,6
2018/3/6 0:53,3,4,3.2,3,5.1,6
2018/3/6 0:54,3,4,3,3,3.9,3
2018/3/6 0:55,2.9,4,3.1,3,3.5,3
2018/3/6 0:56,2.4,4,2.9,3,1.4,15
2018/3/6 0:57,2,4,2.4,3,1.3,15
2018/3/6 0:58,1.8,4,1.9,3,1.9,16
2018/3/6 0:59,1.8,4,1.8,3,4.2,3
2018/3/6 1:00,1.9,4,1.9,3,4.2,1
2018/3/6 1:01,1.9,3,1.9,3,4.7,4
2018/3/6 1:02,2,3,2,3,7.7,2
2018/3/6 1:03,2.1,3,2.1,4,8.3,5
2018/3/6 1:04,2.3,3,2.3,4,7,5
2018/3/6 1:05,2.6,3,2.6,4,7.4,4
2018/3/6 1:06,2.9,3,2.9,3,5.8,5
2018/3/6 1:07,3.3,3,3.3,3,7.7,4
2018/3/6 1:08,3.6,3,3.6,3,6.1,3
2018/3/6 1:09,3.5,4,3.6,3,2.9,5
2018/3/6 1:10,3.5,4,3.5,3,3.8,6
2018/3/6 1:11,3.5,4,3.5,3,3.1,5
2018/3/6 1:12,3.4,4,3.5,3,4.5,1
2018/3/6 1:13,3.2,4,3.4,3,6.5,1
2018/3/6 1:14,3.1,4,3.3,3,5.8,1
2018/3/6 1:15,2.8,3,3.1,3,4.3,13
2018/3/6 1:16,2.7,3,2.8,3,8.6,15
2018/3/6 1:17,2.5,3,2.7,3,3.5,2
2018/3/6 1:18,2.3,2,2.4,3,3,16
2018/3/6 1:19,2.3,2,2.3,4,3.2,4
2018/3/6 1:20,2.3,2,2.4,4,3.8,3
2018/3/6 1:21,2.9,2,2.9,4,14.3,3
2018/3/6 1:22,3.2,2,3.2,4,7,2
2018/3/6 1:23,3.3,2,3.3,4,7.8,3
2018/3/6 1:24,3.2,2,3.2,2,3.9,3
2018/3/6 1:25,3.4,2,3.4,2,6,3
2018/3/6 1:26,3.7,2,3.7,2,8.3,2
2018/3/6 1:27,4.3,2,4.3,2,12.7,2
2018/3/6 1:28,4.8,3,4.8,3,13.4,3
2018/3/6 1:29,5.2,3,5.2,3,7.6,4
2018/3/6 1:30,5.4,2,5.4,2,8.7,4
2018/3/6 1:31,5.2,3,5.5,3,10.6,2
2018/3/6 1:32,5.4,3,5.4,3,12.6,3
2018/3/6 1:33,5.5,3,5.5,3,10.2,3
2018/3/6 1:34,5.5,3,5.6,3,8.1,4
2018/3/6 1:35,5.5,3,5.5,3,7.5,5
2018/3/6 1:36,5.4,4,5.5,3,6.1,5
2018/3/6 1:37,4.8,4,5.3,3,4.9,4
2018/3/6 1:38,4.4,4,4.8,3,4.1,6
2018/3/6 1:39,4.2,4,4.4,3,6.1,5
2018/3/6 1:40,4.4,4,4.4,3,11.3,4
2018/3/6 1:41,4.5,4,4.5,3,11.6,5
2018/3/6 1:42,4.6,4,4.6,3,12.4,4
2018/3/6 1:43,4.5,4,4.6,3,7.2,2
2018/3/6 1:44,5.1,4,5.1,3,15.8,3
2018/3/6 1:45,5.2,4,5.2,3,11,3
2018/3/6 1:46,5.7,4,5.7,4,15.8,3
2018/3/6 1:47,6,3,6,3,16.8,1
2018/3/6 1:48,6.1,3,6.1,3,6.2,1
2018/3/6 1:49,6.4,2,6.4,2,13.1,16
2018/3/6 1:50,6.4,2,6.5,2,10.9,1
2018/3/6 1:51,6,1,6.4,2,8.3,16
2018/3/6 1:52,5.6,1,5.9,2,5.6,2
2018/3/6 1:53,5.4,2,5.6,2,6,3
2018/3/6 1:54,5.1,2,5.5,2,6.4,3
2018/3/6 1:55,4.7,2,5,2,6.5,2
2018/3/6 1:56,4.1,2,4.6,2,5,3
2018/3/6 1:57,4,2,4,2,8.5,4
2018/3/6 1:58,4.2,3,4.2,2,9,5
2018/3/6 1:59,4.1,3,4.3,2,8.6,5
2018/3/6 2:00,3.9,3,4.1,2,7.4,3
2018/3/6 2:01,4,4,4,1,6.8,3
2018/3/6 2:02,4.1,3,4.1,1,6,2
2018/3/6 2:03,4,3,4.1,2,4.2,1
2018/3/6 2:04,3.7,3,3.9,2,3.1,2
2018/3/6 2:05,3.7,3,3.7,2,4.2,3
2018/3/6 2:06,3.7,3,3.7,3,7.6,6
2018/3/6 2:07,3.4,3,3.7,3,3.5,4
2018/3/6 2:08,3.2,3,3.4,3,4.2,2
2018/3/6 2:09,2.7,3,3.2,3,2.4,5
2018/3/6 2:10,2.4,3,2.6,4,2.5,3
2018/3/6 2:11,2,3,2.3,4,1.4,3
2018/3/6 2:12,1.7,3,2,3,1.4,3
2018/3/6 2:13,1.5,3,1.6,3,0.8,9
2018/3/6 2:14,1.4,3,1.5,3,0.5,4
2018/3/6 2:15,1.3,3,1.4,3,3.1,2
2018/3/6 2:16,1.1,3,1.3,3,1.9,1
2018/3/6 2:17,1,3,1.1,3,1.6,6
2018/3/6 2:18,0.8,3,1,3,2.6,5
2018/3/6 2:19,0.9,4,0.9,3,3.3,5
2018/3/6 2:20,0.9,4,0.9,3,4.3,16
2018/3/6 2:21,1,3,1,3,4.1,1
2018/3/6 2:22,1.2,3,1.2,3,3.9,2
2018/3/6 2:23,1.4,3,1.4,3,6.5,5
2018/3/6 2:24,1.6,3,1.6,3,4.8,1
2018/3/6 2:25,1.7,4,1.7,3,6.5,3
2018/3/6 2:26,1.9,4,1.9,4,4.9,6
2018/3/6 2:27,2.1,3,2.1,4,4.3,4
2018/3/6 2:28,2.2,3,2.2,3,4.1,3
2018/3/6 2:29,2.6,3,2.6,3,10.7,1
2018/3/6 2:30,3.1,3,3.1,3,11,2
2018/3/6 2:31,3.4,3,3.4,3,8.9,3
2018/3/6 2:32,3.3,3,3.4,3,3.1,8
2018/3/6 2:33,3.2,3,3.3,3,3.8,14
2018/3/6 2:34,3.1,2,3.2,3,2.5,14
2018/3/6 2:35,3,2,3.1,3,3.6,3
2018/3/6 2:36,3.1,2,3.1,3,8.3,15
2018/3/6 2:37,3.4,1,3.4,3,10.2,1
2018/3/6 2:38,3.5,1,3.5,1,6.3,1
2018/3/6 2:39,3.3,1,3.5,1,6.3,3
2018/3/6 2:40,2.9,1,3.3,1,6.9,3
2018/3/6 2:41,2.8,1,2.9,1,9.9,2
2018/3/6 2:42,3.1,1,3.1,1,7.4,15
2018/3/6 2:43,3.3,1,3.3,1,7.5,2
2018/3/6 2:44,3.2,2,3.3,1,1.4,3
2018/3/6 2:45,3.2,1,3.2,1,3,14
2018/3/6 2:46,3.1,2,3.2,1,4.8,13
2018/3/6 2:47,2.6,2,3,1,2.5,2
2018/3/6 2:48,2.5,2,2.6,1,3.3,6
2018/3/6 2:49,2.4,2,2.5,1,5.1,2
2018/3/6 2:50,2.3,3,2.4,1,4.8,5
2018/3/6 2:51,2.2,3,2.4,1,5.7,3
2018/3/6 2:52,2.1,3,2.2,1,3.9,3
2018/3/6 2:53,2,3,2.1,1,4.2,1
2018/3/6 2:54,2.2,3,2.2,2,4.8,1
2018/3/6 2:55,2.2,3,2.2,1,4.8,3
2018/3/6 2:56,2.6,3,2.6,2,10.5,3
2018/3/6 2:57,2.7,3,2.7,3,8.1,3
2018/3/6 2:58,3,2,3,2,7.2,3
2018/3/6 2:59,3.1,3,3.1,2,6.3,3
2018/3/6 3:00,3,2,3.1,2,4.1,1
2018/3/6 3:01,3.2,2,3.2,2,8.5,16
2018/3/6 3:02,3.3,2,3.3,2,5.8,1
2018/3/6 3:03,3.4,2,3.4,2,5.2,5
2018/3/6 3:04,3.3,2,3.4,2,3.3,5
2018/3/6 3:05,3.2,3,3.3,2,2.1,8
2018/3/6 3:06,2.8,3,3.1,2,3.1,6
2018/3/6 3:07,2.7,4,2.7,2,2.7,5
2018/3/6 3:08,2.5,4,2.7,2,6.5,16
2018/3/6 3:09,2.4,4,2.4,2,6,4
2018/3/6 3:10,2.8,5,2.8,2,16,4
2018/3/6 3:11,3,5,3.1,2,12.7,3
2018/3/6 3:12,3.2,4,3.2,2,9.7,1
2018/3/6 3:13,3.2,4,3.2,2,7.7,14
2018/3/6 3:14,3.4,3,3.4,4,7.9,14
2018/3/6 3:15,3.5,3,3.5,3,4.4,16
2018/3/6 3:16,3.7,3,3.7,3,5,4
2018/3/6 3:17,3.8,2,3.8,2,3.3,3
2018/3/6 3:18,3.8,2,3.8,2,3.8,3
2018/3/6 3:19,3.8,2,3.9,2,5.8,7
2018/3/6 3:20,3.5,2,3.8,2,7,1
2018/3/6 3:21,3.2,2,3.5,2,4.3,1
2018/3/6 3:22,2.7,2,3.1,2,2.1,1
2018/3/6 3:23,2.5,2,2.7,2,2.2,4
2018/3/6 3:24,2.3,3,2.5,2,2.7,4
2018/3/6 3:25,2.4,3,2.4,2,5.4,5
2018/3/6 3:26,2.3,3,2.4,2,6,4
2018/3/6 3:27,2.3,3,2.4,2,4.7,1
2018/3/6 3:28,2.3,3,2.3,2,6.7,14
2018/3/6 3:29,2.1,3,2.3,2,5,14
2018/3/6 3:30,2.1,3,2.1,2,3.9,5
2018/3/6 3:31,2.2,4,2.2,2,3.6,5
2018/3/6 3:32,2.4,4,2.4,2,4.8,5
2018/3/6 3:33,2.6,4,2.6,4,5.7,5
2018/3/6 3:34,2.7,4,2.7,4,4.2,4
2018/3/6 3:35,2.5,4,2.7,4,2.7,15
2018/3/6 3:36,2.4,4,2.5,4,3.1,5
2018/3/6 3:37,2.3,4,2.4,4,2.1,4
2018/3/6 3:38,2.2,5,2.4,4,2.5,4
2018/3/6 3:39,2.3,5,2.3,4,6.1,6
2018/3/6 3:40,2.4,5,2.4,4,5.7,4
2018/3/6 3:41,2.3,5,2.4,4,5.5,3
2018/3/6 3:42,2.2,5,2.3,4,2.6,6
2018/3/6 3:43,2,5,2.2,4,2.6,6
2018/3/6 3:44,1.9,5,2,4,2.7,6
2018/3/6 3:45,1.8,5,1.9,4,1.8,10
2018/3/6 3:46,1.8,5,1.8,4,2.6,14
2018/3/6 3:47,1.8,5,1.8,4,2.1,1
2018/3/6 3:48,1.7,5,1.8,5,1.5,8
2018/3/6 3:49,1.7,5,1.7,5,4.5,4
2018/3/6 3:50,1.5,5,1.7,5,4.2,4
2018/3/6 3:51,1.6,5,1.6,5,5.1,4
2018/3/6 3:52,1.7,5,1.7,5,4.7,5
2018/3/6 3:53,1.8,5,1.8,5,4.7,5
2018/3/6 3:54,2,5,2,5,6.2,4
2018/3/6 3:55,2.3,5,2.3,5,4.9,6
2018/3/6 3:56,2.3,5,2.3,5,2.7,5
2018/3/6 3:57,2.4,5,2.4,5,5.5,4
2018/3/6 3:58,2.8,5,2.8,5,6.9,4
2018/3/6 3:59,3,5,3,5,5.7,5
2018/3/6 4:00,3.1,5,3.1,5,4.9,6
2018/3/6 4:01,3.1,5,3.1,5,4.3,6
2018/3/6 4:02,2.9,5,3.1,5,4.3,16
2018/3/6 4:03,3,5,3,5,4.5,7
2018/3/6 4:04,3,5,3,5,5,6
2018/3/6 4:05,3.2,5,3.2,5,7.4,5
2018/3/6 4:06,3.4,5,3.4,5,5.8,5
2018/3/6 4:07,3.6,5,3.6,5,7.4,5
2018/3/6 4:08,3.6,5,3.6,5,8.5,6
2018/3/6 4:09,3.8,5,3.8,5,9.9,4
2018/3/6 4:10,3.9,5,3.9,5,7.5,5
2018/3/6 4:11,4,5,4,5,7.6,5
2018/3/6 4:12,4.1,5,4.1,5,5,5
2018/3/6 4:13,4.2,5,4.2,5,6.8,4
2018/3/6 4:14,4.2,5,4.2,5,8.7,6
2018/3/6 4:15,4.2,4,4.3,4,8.1,3
2018/3/6 4:16,4.3,4,4.3,4,6.1,3
2018/3/6 4:17,4.2,4,4.3,4,7.7,4
2018/3/6 4:18,4.1,4,4.2,4,5.8,6
2018/3/6 4:19,3.8,4,4.1,4,5.1,5
2018/3/6 4:20,3.8,4,3.8,4,6.2,5
2018/3/6 4:21,3.9,4,3.9,4,6.1,4
2018/3/6 4:22,4.1,4,4.1,4,7.1,4
2018/3/6 4:23,4,4,4.1,4,5.8,2
2018/3/6 4:24,3.9,4,4,4,5.2,1
2018/3/6 4:25,3.7,4,3.8,4,6.7,4
2018/3/6 4:26,3.8,4,3.8,4,7.2,3
2018/3/6 4:27,3.8,4,3.9,4,6.1,3
2018/3/6 4:28,3.8,4,3.8,4,4.5,3
2018/3/6 4:29,3.8,4,3.8,4,5.8,3
2018/3/6 4:30,3.7,3,3.7,4,7.1,2
2018/3/6 4:31,3.9,3,3.9,4,9.4,3
2018/3/6 4:32,3.6,3,3.9,4,4.7,4
2018/3/6 4:33,3.6,3,3.6,4,3.9,3
2018/3/6 4:34,3.6,3,3.6,4,4.3,4
2018/3/6 4:35,3.4,3,3.6,4,2.5,2
2018/3/6 4:36,3,3,3.3,4,3.1,6
2018/3/6 4:37,2.8,3,2.9,3,7.4,5
2018/3/6 4:38,3,4,3,3,7.9,6
2018/3/6 4:39,3,4,3,3,5.6,7
2018/3/6 4:40,3.1,4,3.2,3,7.9,6
2018/3/6 4:41,3,5,3.1,3,8.9,6
2018/3/6 4:42,3.3,5,3.3,3,8.9,5
2018/3/6 4:43,3.6,5,3.6,3,7.2,6
2018/3/6 4:44,3.8,5,3.8,5,8.2,3
2018/3/6 4:45,4.2,5,4.2,5,7.1,3
2018/3/6 4:46,4.5,5,4.5,5,7.9,3
2018/3/6 4:47,4.7,5,4.8,5,8.7,5
2018/3/6 4:48,4.6,5,4.7,5,5.6,5
2018/3/6 4:49,4.7,4,4.7,5,5.7,4
2018/3/6 4:50,4.5,4,4.6,5,3.3,4
2018/3/6 4:51,4.4,4,4.4,5,9.5,3
2018/3/6 4:52,4.2,4,4.4,5,6.8,2
2018/3/6 4:53,4,4,4.2,5,5.8,2
2018/3/6 4:54,3.9,3,4.1,5,6.8,2
2018/3/6 4:55,3.6,3,3.9,5,3.7,2
2018/3/6 4:56,3.3,3,3.6,5,3.6,1
2018/3/6 4:57,3.1,3,3.2,5,4.9,4
2018/3/6 4:58,3.1,2,3.1,5,7.2,3
2018/3/6 4:59,3.3,2,3.3,4,10.9,3
2018/3/6 5:00,4,2,4,4,14.3,2
2018/3/6 5:01,4.1,2,4.1,4,7.2,2
2018/3/6 5:02,4.1,2,4.2,4,8.9,2
2018/3/6 5:03,4.2,2,4.2,2,6.9,1
2018/3/6 5:04,4.3,3,4.3,3,8.7,3
2018/3/6 5:05,4.4,3,4.4,3,5.1,3
2018/3/6 5:06,4.6,3,4.6,3,9.4,2
2018/3/6 5:07,4.7,3,4.8,3,10.7,2
2018/3/6 5:08,4.9,3,4.9,3,5.8,3
2018/3/6 5:09,4.5,3,4.8,3,4.5,3
2018/3/6 5:10,3.9,3,4.5,3,4.2,5
2018/3/6 5:11,3.7,3,3.9,3,4.2,6
2018/3/6 5:12,3.5,3,3.6,3,6.1,1
2018/3/6 5:13,3.4,3,3.5,3,5.6,14
2018/3/6 5:14,3.3,3,3.3,3,7.5,4
2018/3/6 5:15,3.5,3,3.5,3,8.7,2
2018/3/6 5:16,3.7,3,3.7,3,9,1
2018/3/6 5:17,3.7,3,3.7,3,11.5,1
2018/3/6 5:18,3.7,3,3.7,3,7.6,1
2018/3/6 5:19,3.9,2,3.9,3,8.3,3
2018/3/6 5:20,4,2,4,2,6.4,2
2018/3/6 5:21,4,2,4,2,4.2,2
2018/3/6 5:22,4.2,2,4.2,2,7.1,5
2018/3/6 5:23,4.4,3,4.4,2,8.4,5
2018/3/6 5:24,4.5,2,4.6,3,7.8,4
2018/3/6 5:25,4.5,2,4.5,3,11.8,2
2018/3/6 5:26,4.7,2,4.8,2,10.7,1
2018/3/6 5:27,4.4,2,4.6,2,5.4,16
2018/3/6 5:28,4.3,2,4.4,2,7.2,3
2018/3/6 5:29,4.3,2,4.4,2,10.8,4
2018/3/6 5:30,4.2,2,4.3,2,4.4,2
2018/3/6 5:31,4.2,2,4.2,2,3.8,4
2018/3/6 5:32,4.2,2,4.3,2,6.9,3
2018/3/6 5:33,4,2,4.2,2,7.2,4
2018/3/6 5:34,3.7,1,4,2,4.8,3
2018/3/6 5:35,3.5,1,3.7,2,4.5,2
2018/3/6 5:36,3.2,1,3.5,2,6.8,2
2018/3/6 5:37,3.6,2,3.6,2,12.4,1
2018/3/6 5:38,4.2,2,4.2,2,12.8,1
2018/3/6 5:39,4.4,2,4.4,2,10.9,1
2018/3/6 5:40,4.8,2,4.8,2,11.8,2
2018/3/6 5:41,5.5,1,5.5,1,12.8,1
2018/3/6 5:42,5.5,1,5.6,1,9.4,15
2018/3/6 5:43,5.3,1,5.5,1,3.7,16
2018/3/6 5:44,5.4,1,5.4,1,5.4,2
2018/3/6 5:45,5.2,1,5.4,1,3.5,3
2018/3/6 5:46,5,1,5.2,1,4.3,14
2018/3/6 5:47,4.6,1,5,1,6.8,3
2018/3/6 5:48,3.9,1,4.6,1,3.6,1
2018/3/6 5:49,3.4,1,3.9,1,4.8,3
2018/3/6 5:50,3,2,3.3,1,6.9,2
2018/3/6 5:51,2.7,2,3,1,9,3
2018/3/6 5:52,2.7,2,2.7,1,6.5,16
2018/3/6 5:53,3.1,2,3.1,1,8.3,4
2018/3/6 5:54,3,2,3.2,1,5.6,5
2018/3/6 5:55,3,2,3,1,2.5,15
2018/3/6 5:56,3,2,3,1,3.7,16
2018/3/6 5:57,3.1,2,3.1,1,6.7,13
2018/3/6 5:58,3.2,1,3.2,1,5.4,13
2018/3/6 5:59,3.1,16,3.2,1,3.3,13
2018/3/6 6:00,2.9,15,3.1,2,4.8,7
2018/3/6 6:01,2.6,14,2.9,2,5.4,7
2018/3/6 6:02,2.6,12,2.6,2,7,7
2018/3/6 6:03,2.3,12,2.6,2,4.7,8
2018/3/6 6:04,2.3,13,2.3,2,5,16
2018/3/6 6:05,2.4,12,2.4,2,5.5,8
2018/3/6 6:06,2.7,11,2.7,2,8.1,4
2018/3/6 6:07,2.8,3,2.8,2,6.9,3
2018/3/6 6:08,2.9,4,2.9,1,7.8,16
2018/3/6 6:09,3,4,3,16,3.3,3
2018/3/6 6:10,2.9,3,3,4,2.9,2
2018/3/6 6:11,2.7,3,2.8,4,3.3,16
2018/3/6 6:12,2.8,2,2.8,4,16.2,1
2018/3/6 6:13,3.1,2,3.1,2,12.4,16
2018/3/6 6:14,3.5,2,3.5,2,11.1,16
2018/3/6 6:15,3.7,1,3.7,2,8.1,16
2018/3/6 6:16,3.5,1,3.7,2,5.4,16
2018/3/6 6:17,3.4,1,3.5,2,4.8,15
2018/3/6 6:18,3.2,1,3.4,2,4.7,16
2018/3/6 6:19,3.2,1,3.2,2,2.2,2
2018/3/6 6:20,3.4,1,3.4,2,11,16
2018/3/6 6:21,3.6,16,3.6,2,8.9,15
2018/3/6 6:22,3.3,16,3.6,2,1.4,12
2018/3/6 6:23,2.9,16,3.3,2,3.9,11
2018/3/6 6:24,2.6,16,2.9,2,5.7,10
2018/3/6 6:25,2.3,16,2.5,1,3.5,11
2018/3/6 6:26,2,15,2.2,16,0.8,2
2018/3/6 6:27,1.8,16,2,16,1,5
2018/3/6 6:28,1.7,2,1.8,16,4.4,6
2018/3/6 6:29,1.7,1,1.8,16,2.6,9
2018/3/6 6:30,1.9,7,2,16,8.5,7
2018/3/6 6:31,2,8,2,16,7.1,9
2018/3/6 6:32,2.2,8,2.2,16,5.7,10
2018/3/6 6:33,2.2,8,2.2,16,4.3,6
2018/3/6 6:34,2.1,8,2.2,16,3.7,10
2018/3/6 6:35,2.1,8,2.1,16,4.7,10
2018/3/6 6:36,2.3,8,2.3,8,4.4,10
2018/3/6 6:37,2.4,9,2.4,8,5,15
2018/3/6 6:38,2.6,9,2.6,9,6.8,15
2018/3/6 6:39,2.6,9,2.7,9,3.5,8
2018/3/6 6:40,2.3,9,2.7,9,4.9,8
2018/3/6 6:41,2.1,9,2.3,9,5.1,9
2018/3/6 6:42,1.9,10,2.1,9,2.9,9
2018/3/6 6:43,1.8,10,1.9,9,3.6,8
2018/3/6 6:44,1.8,10,1.8,9,4.2,9
2018/3/6 6:45,1.7,10,1.8,9,2.1,14
2018/3/6 6:46,1.6,10,1.7,9,3,2
2018/3/6 6:47,2,9,2,9,7.7,5
2018/3/6 6:48,2.1,7,2.1,9,10.1,4
2018/3/6 6:49,2.4,6,2.4,9,8.7,3
2018/3/6 6:50,2.6,7,2.6,7,5.2,16
2018/3/6 6:51,2.6,13,2.6,7,3.8,13
2018/3/6 6:52,2.9,13,2.9,13,6,11
2018/3/6 6:53,3,15,3,14,6.1,2
2018/3/6 6:54,3.4,1,3.4,1,12.1,3
2018/3/6 6:55,3.5,2,3.5,1,3.8,1
2018/3/6 6:56,3.6,1,3.6,1,4.2,15
2018/3/6 6:57,3.3,16,3.6,1,4.3,1
2018/3/6 6:58,3.3,16,3.4,1,7.9,5
2018/3/6 6:59,3.1,16,3.3,1,7.7,3
2018/3/6 7:00,2.9,2,3.1,1,4.1,4
2018/3/6 7:01,3,2,3,1,6.9,13
2018/3/6 7:02,2.9,2,3,1,4.8,12
2018/3/6 7:03,2.8,16,2.9,1,3.5,12
2018/3/6 7:04,2.5,15,2.8,1,7.8,1
2018/3/6 7:05,2.6,16,2.6,1,7.5,16
2018/3/6 7:06,2.5,16,2.6,16,3.3,4
2018/3/6 7:07,2.5,16,2.6,16,5.4,6
2018/3/6 7:08,2.4,15,2.5,16,8.2,4
2018/3/6 7:09,2.6,15,2.6,1,7.9,4
2018/3/6 7:10,2.7,14,2.7,2,5.6,8
2018/3/6 7:11,2.7,3,2.8,2,6.2,2
2018/3/6 7:12,2.9,3,2.9,2,8.5,4
2018/3/6 7:13,3.2,4,3.2,4,11.4,5
2018/3/6 7:14,3.7,4,3.7,4,11.1,6
2018/3/6 7:15,3.9,4,3.9,4,9.5,3
2018/3/6 7:16,4.1,4,4.1,4,9.1,3
2018/3/6 7:17,4.6,4,4.6,4,11.7,15
2018/3/6 7:18,4.7,3,4.7,3,7.5,16
2018/3/6 7:19,4.4,4,4.6,3,5.4,4
2018/3/6 7:20,4.5,3,4.5,3,10.9,5
2018/3/6 7:21,4.5,4,4.5,3,6.4,5
2018/3/6 7:22,4.6,4,4.6,3,10.9,6
2018/3/6 7:23,4.5,4,4.6,3,7.9,3
2018/3/6 7:24,4.2,3,4.5,3,6.5,1
2018/3/6 7:25,4.3,3,4.4,3,11.7,1
2018/3/6 7:26,4.4,2,4.4,3,9.9,1
2018/3/6 7:27,4.1,3,4.4,3,10.5,1
2018/3/6 7:28,4.3,3,4.3,3,10.9,15
2018/3/6 7:29,4.8,2,4.8,2,12.8,1
2018/3/6 7:30,4.9,2,4.9,2,9.8,4
2018/3/6 7:31,5.5,2,5.5,2,18,3
2018/3/6 7:32,5.1,2,5.5,2,8.2,1
2018/3/6 7:33,4.9,1,5,2,5.5,16
2018/3/6 7:34,4.6,1,4.8,2,1.1,8
2018/3/6 7:35,4.2,1,4.5,2,4.2,16
2018/3/6 7:36,4,1,4.2,2,5.2,15
2018/3/6 7:37,4.2,2,4.2,2,15.3,4
2018/3/6 7:38,4,2,4.3,2,8.1,5
2018/3/6 7:39,3.9,2,3.9,2,15,2
2018/3/6 7:40,4,2,4,2,10.1,16
2018/3/6 7:41,3.6,2,4,2,8.9,16
2018/3/6 7:42,3.6,2,3.6,2,4.5,5
2018/3/6 7:43,3.6,2,3.7,1,4.4,2
2018/3/6 7:44,4,2,4,1,7.5,2
2018/3/6 7:45,4,2,4,2,6,15
2018/3/6 7:46,4.2,2,4.2,2,7.7,1
2018/3/6 7:47,3.8,2,4.2,2,7.2,15
2018/3/6 7:48,4.1,2,4.1,2,13.6,2
2018/3/6 7:49,4.2,2,4.4,2,13.8,2
2018/3/6 7:50,3.8,1,4.1,2,5.4,16
2018/3/6 7:51,3.7,2,3.8,2,7.5,3
2018/3/6 7:52,4.2,1,4.2,2,13.5,2
2018/3/6 7:53,4.4,1,4.4,2,6.3,15
2018/3/6 7:54,4.2,1,4.4,2,4.2,2
2018/3/6 7:55,4.1,2,4.2,2,3.7,3
2018/3/6 7:56,4.1,2,4.1,2,13.3,3
2018/3/6 7:57,4.2,2,4.2,2,11.5,4
2018/3/6 7:58,4.1,2,4.2,2,14.9,2
2018/3/6 7:59,4.2,2,4.2,1,13.4,16
2018/3/6 8:00,4.4,2,4.4,1,10.5,16
2018/3/6 8:01,4.4,2,4.4,1,6.5,6
2018/3/6 8:02,3.9,2,4.3,1,4.7,3
2018/3/6 8:03,3.7,3,3.9,1,4.3,4
2018/3/6 8:04,4.3,2,4.3,2,11.4,15
2018/3/6 8:05,4.8,1,4.8,1,9.9,15
2018/3/6 8:06,4.6,1,4.8,1,6.3,1
2018/3/6 8:07,4.5,16,4.6,1,6.9,16
2018/3/6 8:08,4.3,16,4.5,1,9.1,2
2018/3/6 8:09,3.8,16,4.3,1,4.1,15
2018/3/6 8:10,4,1,4,1,11.1,16
2018/3/6 8:11,3.9,16,4.1,1,7.6,16
2018/3/6 8:12,4.2,16,4.2,1,9.5,4
2018/3/6 8:13,4.3,1,4.3,1,4.4,3
2018/3/6 8:14,3.9,1,4.3,1,9.1,15
2018/3/6 8:15,3.8,1,3.9,1,11,2
2018/3/6 8:16,4,1,4.1,1,11.7,2
2018/3/6 8:17,4.1,1,4.1,16,5.8,3
2018/3/6 8:18,4,2,4.1,1,5.2,4
2018/3/6 8:19,4.5,2,4.5,2,10.6,3
2018/3/6 8:20,4.7,2,4.7,2,13.6,3
2018/3/6 8:21,4.9,2,4.9,2,12.1,2
2018/3/6 8:22,4.6,2,4.9,2,5,15
2018/3/6 8:23,4.5,2,4.6,2,3.1,16
2018/3/6 8:24,4.2,2,4.5,2,2.2,2
2018/3/6 8:25,3.9,2,4.2,2,3.6,4
2018/3/6 8:26,3.5,3,3.8,2,2.5,3
2018/3/6 8:27,3.3,3,3.5,2,2.5,3
2018/3/6 8:28,3.1,3,3.3,2,1.5,3
2018/3/6 8:29,2.6,3,3.1,2,1.9,8
2018/3/6 8:30,1.8,3,2.4,2,3.3,9
2018/3/6 8:31,1.6,4,1.7,2,7,5
2018/3/6 8:32,1.8,4,1.8,2,8.3,2
2018/3/6 8:33,1.8,4,1.8,2,2.6,3
2018/3/6 8:34,1.8,5,1.9,2,2.2,7
2018/3/6 8:35,1.7,4,1.8,2,2.7,16
2018/3/6 8:36,1.8,4,1.8,3,3.2,1
2018/3/6 8:37,1.8,4,1.8,3,3.1,13
2018/3/6 8:38,2,4,2,3,6.2,11
2018/3/6 8:39,2,3,2,3,2.2,2
2018/3/6 8:40,2,3,2,4,3.3,12
2018/3/6 8:41,1.8,2,2.1,2,2.1,13
2018/3/6 8:42,1.5,1,1.8,2,2.2,16
2018/3/6 8:43,1.6,1,1.6,2,4.4,16
2018/3/6 8:44,1.8,16,1.8,2,6.1,2
2018/3/6 8:45,2.2,16,2.2,16,12.8,2
2018/3/6 8:46,2.7,16,2.7,16,13.8,3
2018/3/6 8:47,3.2,1,3.2,1,11.9,4
2018/3/6 8:48,3.6,1,3.6,1,12.6,2
2018/3/6 8:49,4.3,2,4.3,2,12.4,3
2018/3/6 8:50,4.4,2,4.4,2,7.7,3
2018/3/6 8:51,4.6,2,4.6,2,7.9,2
2018/3/6 8:52,4.7,2,4.7,2,4.3,6
2018/3/6 8:53,4.8,3,4.8,2,7.1,4
2018/3/6 8:54,5,2,5,3,8.5,4
2018/3/6 8:55,4.8,2,5.1,2,4.4,2
2018/3/6 8:56,4.6,3,4.8,2,8.2,16
2018/3/6 8:57,4.4,2,4.7,2,12.1,1
2018/3/6 8:58,4.8,2,4.8,2,15.9,1
2018/3/6 8:59,4.6,2,4.8,2,10.2,2
2018/3/6 9:00,4.8,2,4.8,2,9,15
2018/3/6 9:01,4.7,1,4.8,2,5.7,16
2018/3/6 9:02,5.6,1,5.6,1,17.6,16
2018/3/6 9:03,6.2,16,6.2,16,14.5,16
2018/3/6 9:04,6,1,6.1,16,8.2,2
2018/3/6 9:05,6,1,6,16,6.4,4
2018/3/6 9:06,6,1,6,16,10.6,1
2018/3/6 9:07,6,1,6,16,10.6,2
2018/3/6 9:08,5.6,1,6,16,10.5,2
2018/3/6 9:09,5.3,1,5.6,16,8.5,2
2018/3/6 9:10,5.4,1,5.4,16,9.8,2
2018/3/6 9:11,6,1,6,16,16.1,16
2018/3/6 9:12,5.4,1,6,16,12.6,1
2018/3/6 9:13,5.3,2,5.4,16,18.4,1
2018/3/6 9:14,5.9,1,6,1,19.9,16
2018/3/6 9:15,6.5,2,6.5,2,12.1,1
2018/3/6 9:16,6.5,1,6.5,2,8.6,1
2018/3/6 9:17,6.6,2,6.6,2,11.4,3
2018/3/6 9:18,6.3,1,6.6,2,7,3
2018/3/6 9:19,6.1,2,6.2,2,3.6,5
2018/3/6 9:20,5.9,2,6.1,2,4.4,3
2018/3/6 9:21,5.6,2,5.8,2,13.5,16
2018/3/6 9:22,5.8,2,5.8,2,10.1,1
2018/3/6 9:23,5.4,2,5.8,2,8.1,3
2018/3/6 9:24,4.9,2,5.3,2,11.1,15
2018/3/6 9:25,4.8,2,4.8,2,11,3
2018/3/6 9:26,4.7,3,4.9,2,8.1,6
2018/3/6 9:27,4.1,3,4.7,2,1.6,12
2018/3/6 9:28,4.1,3,4.1,1,3.8,14
2018/3/6 9:29,4.4,2,4.4,2,8.9,16
2018/3/6 9:30,4.7,2,4.7,2,12.1,14
2018/3/6 9:31,4.2,2,4.7,2,4.1,2
2018/3/6 9:32,4.1,2,4.2,2,6.8,1
2018/3/6 9:33,4.2,1,4.2,2,7.2,1
2018/3/6 9:34,4.1,2,4.2,2,9.2,3
2018/3/6 9:35,4,2,4.1,2,9.9,1
2018/3/6 9:36,4,1,4,3,9.8,16
2018/3/6 9:37,4.5,1,4.5,2,10.5,2
2018/3/6 9:38,5,1,5,1,12.5,1
2018/3/6 9:39,5,1,5.1,1,10.7,1
2018/3/6 9:40,4.8,1,5,1,6.2,15
2018/3/6 9:41,5.1,1,5.1,1,10.9,2
2018/3/6 9:42,5.3,1,5.3,1,10.6,2
2018/3/6 9:43,5.3,1,5.4,1,10.2,1
2018/3/6 9:44,5.2,16,5.3,1,10.9,16
2018/3/6 9:45,5.3,16,5.3,1,10.1,1
2018/3/6 9:46,5.8,16,5.8,16,14.1,16
2018/3/6 9:47,5.7,16,5.9,16,11.5,16
2018/3/6 9:48,5.5,16,5.6,16,8.7,1
2018/3/6 9:49,5.5,16,5.5,16,9.7,1
2018/3/6 9:50,5.6,16,5.6,16,8.5,16
2018/3/6 9:51,5.6,16,5.7,16,11,16
2018/3/6 9:52,5.3,16,5.6,16,10.6,16
2018/3/6 9:53,5.2,16,5.3,16,9.3,16
2018/3/6 9:54,5.4,16,5.5,16,9.5,1
2018/3/6 9:55,5.3,16,5.4,16,12.8,1
2018/3/6 9:56,5,16,5.3,16,11.6,2
2018/3/6 9:57,5.1,16,5.1,16,9.7,16
2018/3/6 9:58,4.9,16,5.1,16,6.8,16
2018/3/6 9:59,4.9,16,4.9,16,7.9,1
2018/3/6 10:00,5.2,16,5.2,16,13.8,1
2018/3/6 10:01,5.2,16,5.3,16,9.8,16
2018/3/6 10:02,5.2,16,5.2,16,8.3,2
2018/3/6 10:03,5.3,1,5.3,16,10.8,2
2018/3/6 10:04,5.4,1,5.4,16,11.5,2
2018/3/6 10:05,5.4,1,5.6,1,9.5,15
2018/3/6 10:06,5.2,1,5.4,1,6.1,16
2018/3/6 10:07,5,1,5.2,1,7,15
2018/3/6 10:08,5.3,16,5.3,1,8.3,15
2018/3/6 10:09,5.2,16,5.3,1,10.3,1
2018/3/6 10:10,4.9,16,5.2,1,7.4,1
2018/3/6 10:11,4.9,1,4.9,1,11,16
2018/3/6 10:12,5.3,16,5.3,1,10.1,1
2018/3/6 10:13,5,16,5.3,1,8.6,1
2018/3/6 10:14,4.5,1,4.9,1,3.1,4
2018/3/6 10:15,4.3,1,4.5,1,6.5,8
2018/3/6 10:16,4.2,2,4.3,16,4.8,5
2018/3/6 10:17,4.2,2,4.2,16,9,1
2018/3/6 10:18,4.3,2,4.3,16,15.6,1
2018/3/6 10:19,4.5,2,4.6,16,12.1,16
2018/3/6 10:20,4.8,2,4.8,16,10.7,16
2018/3/6 10:21,4.6,2,4.8,16,13.3,15
2018/3/6 10:22,4.8,1,4.8,16,12.8,16
2018/3/6 10:23,5.4,1,5.4,1,13,1
2018/3/6 10:24,6.1,1,6.1,1,13.1,2
2018/3/6 10:25,6.3,1,6.3,1,12.2,1
2018/3/6 10:26,6.1,1,6.2,1,4.8,2
2018/3/6 10:27,6,1,6.1,1,3.6,16
2018/3/6 10:28,5.4,16,6,1,2.5,15
2018/3/6 10:29,5,1,5.4,1,4.3,4
2018/3/6 10:30,4.5,1,4.9,1,3.7,2
2018/3/6 10:31,4.1,1,4.5,1,4.2,2
2018/3/6 10:32,3.6,1,4.1,1,4.5,3
2018/3/6 10:33,2.9,1,3.5,1,4.5,1
2018/3/6 10:34,2.2,1,2.9,1,3.3,3
2018/3/6 10:35,2,2,2.1,1,5.4,1
2018/3/6 10:36,2,2,2,16,3.5,4
2018/3/6 10:37,1.9,2,2,1,3,2
2018/3/6 10:38,1.8,2,1.9,1,1.1,16
2018/3/6 10:39,1.8,2,1.8,1,3.5,2
2018/3/6 10:40,1.7,2,1.8,1,3,16
2018/3/6 10:41,2,2,2,1,7.9,3
2018/3/6 10:42,2.2,2,2.2,1,7.7,3
2018/3/6 10:43,2.3,2,2.3,1,6.8,2
2018/3/6 10:44,2.5,2,2.5,2,8.7,15
2018/3/6 10:45,2.9,2,2.9,2,9.2,3
2018/3/6 10:46,3.2,2,3.2,2,8.6,5
2018/3/6 10:47,3.5,3,3.5,3,8.4,5
2018/3/6 10:48,3.7,3,3.7,3,5.4,4
2018/3/6 10:49,3.7,3,3.7,3,6.2,3
2018/3/6 10:50,3.9,3,3.9,3,7.2,4
2018/3/6 10:51,3.9,3,4,3,8.3,3
2018/3/6 10:52,4.1,3,4.1,3,10.6,4
2018/3/6 10:53,4.2,3,4.2,3,6.3,4
2018/3/6 10:54,4.1,4,4.1,3,8.2,5
2018/3/6 10:55,3.7,4,4.1,3,3.7,6
2018/3/6 10:56,3.3,4,3.6,3,2,11
2018/3/6 10:57,2.9,3,3.3,3,1.4,14
2018/3/6 10:58,2.8,3,2.9,3,1.4,14
2018/3/6 10:59,2.8,2,2.8,3,7,1
2018/3/6 11:00,2.7,1,2.8,3,5.4,16
2018/3/6 11:01,2.6,1,2.7,3,7.7,15
2018/3/6 11:02,2.2,16,2.5,3,5.1,3
2018/3/6 11:03,2.2,16,2.2,3,7.2,5
2018/3/6 11:04,2.1,16,2.2,4,5.5,4
2018/3/6 11:05,2.3,16,2.3,4,4.2,3
2018/3/6 11:06,2.4,1,2.4,4,4.5,1
2018/3/6 11:07,2.5,1,2.5,3,3.3,16
2018/3/6 11:08,2.6,1,2.6,3,2.9,14
2018/3/6 11:09,2.7,16,2.7,2,5.1,12
2018/3/6 11:10,2.6,1,2.7,1,5.8,11
2018/3/6 11:11,2.6,1,2.6,1,5.6,6
2018/3/6 11:12,2.7,2,2.7,1,5.2,16
2018/3/6 11:13,2.7,1,2.7,1,7.6,14
2018/3/6 11:14,2.6,15,2.6,1,6,13
2018/3/6 11:15,2.9,14,2.9,14,7.6,15
2018/3/6 11:16,2.9,14,3,14,8.9,2
2018/3/6 11:17,3.3,15,3.3,15,11,15
2018/3/6 11:18,3.7,16,3.7,16,11.1,1
2018/3/6 11:19,4.1,1,4.1,16,15.4,1
2018/3/6 11:20,4.4,1,4.4,1,7.6,1
2018/3/6 11:21,4.4,1,4.5,1,5.8,5
2018/3/6 11:22,4.7,1,4.7,1,10.6,3
2018/3/6 11:23,5,2,5,2,9.4,3
2018/3/6 11:24,5.2,2,5.2,2,8.6,3
2018/3/6 11:25,5,2,5.2,2,6.3,2
2018/3/6 11:26,4.9,2,5,2,4.7,16
2018/3/6 11:27,4.6,2,4.9,2,4.3,13
2018/3/6 11:28,4.1,2,4.6,2,3.3,1
2018/3/6 11:29,3.6,3,4,2,3.8,3
2018/3/6 11:30,3.4,2,3.6,2,4.4,2
2018/3/6 11:31,3.4,2,3.4,2,6.1,2
2018/3/6 11:32,3,2,3.4,2,5.1,2
2018/3/6 11:33,2.7,2,3,2,6,4
2018/3/6 11:34,2.3,2,2.7,2,1.5,4
2018/3/6 11:35,2.1,2,2.3,2,4.8,16
2018/3/6 11:36,2.2,2,2.2,2,5.6,1
2018/3/6 11:37,2.2,2,2.2,2,6,16
2018/3/6 11:38,2.5,2,2.5,2,9.4,16
2018/3/6 11:39,2.7,2,2.7,2,7.7,16
2018/3/6 11:40,3.2,2,3.2,2,9.7,3
2018/3/6 11:41,3.3,2,3.3,2,10.5,3
2018/3/6 11:42,3.5,2,3.5,2,7.5,3
2018/3/6 11:43,3.7,2,3.7,2,8.1,3
2018/3/6 11:44,4,1,4,1,7.7,1
2018/3/6 11:45,4.2,2,4.2,2,5.6,2
2018/3/6 11:46,4.3,2,4.4,2,5.7,4
2018/3/6 11:47,4.5,2,4.5,2,9.1,2
2018/3/6 11:48,4.5,2,4.6,2,7.9,2
2018/3/6 11:49,4.3,2,4.5,2,6,1
2018/3/6 11:50,4.2,2,4.4,2,9.8,16
2018/3/6 11:51,4.1,2,4.2,2,8.6,16
2018/3/6 11:52,4.2,2,4.2,2,7.5,3
2018/3/6 11:53,4,2,4.1,2,4.9,4
2018/3/6 11:54,3.9,2,4,2,5.7,1
2018/3/6 11:55,3.8,2,4,2,6.3,2
2018/3/6 11:56,3.6,1,3.7,2,3.9,16
2018/3/6 11:57,3.4,2,3.6,2,3.2,16
2018/3/6 11:58,3.2,1,3.3,2,3.9,2